TimeEST,TemperatureF,Dew PointF,Humidity,Sea Level PressureIn,VisibilityMPH,Wind Direction,Wind SpeedMPH,Gust SpeedMPH,PrecipitationIn,Events,Conditions,WindDirDegrees,DateUTC
12:56 AM,37.0,23.0,57,29.99,10.0,West,4.6,-,N/A,,Clear,270,2011-11-18 05:56:00
1:56 AM,35.6,21.2,56,30.03,10.0,West,4.6,-,N/A,,Clear,270,2011-11-18 06:56:00
2:56 AM,36.0,21.0,55,30.07,10.0,West,5.8,-,N/A,,Clear,270,2011-11-18 07:56:00
3:56 AM,35.1,24.1,64,30.10,10.0,West,8.1,-,N/A,,Clear,270,2011-11-18 08:56:00
4:56 AM,34.0,24.1,67,30.14,10.0,West,4.6,-,N/A,,Clear,270,2011-11-18 09:56:00
5:56 AM,34.0,24.1,67,30.17,10.0,West,9.2,-,N/A,,Clear,280,2011-11-18 10:56:00
6:56 AM,35.1,24.1,64,30.22,10.0,West,8.1,-,N/A,,Clear,270,2011-11-18 11:56:00
7:56 AM,36.0,24.1,62,30.25,10.0,West,6.9,-,N/A,,Clear,280,2011-11-18 12:56:00
8:56 AM,37.9,23.0,55,30.27,10.0,WNW,16.1,-,N/A,,Clear,300,2011-11-18 13:56:00
9:56 AM,41.0,23.0,49,30.30,10.0,NW,16.1,20.7,N/A,,Clear,310,2011-11-18 14:56:00
10:56 AM,43.0,23.0,45,30.30,10.0,NW,17.3,26.5,N/A,,Clear,310,2011-11-18 15:56:00
11:56 AM,44.1,23.0,43,30.30,10.0,NW,13.8,-,N/A,,Clear,320,2011-11-18 16:56:00
12:56 PM,45.0,21.9,40,30.30,10.0,NNW,10.4,18.4,N/A,,Partly Cloudy,340,2011-11-18 17:56:00
1:56 PM,46.0,23.0,40,30.32,10.0,WNW,9.2,-,N/A,,Clear,290,2011-11-18 18:56:00
2:56 PM,46.0,21.9,39,30.33,10.0,NW,12.7,16.1,N/A,,Clear,320,2011-11-18 19:56:00
3:56 PM,44.1,21.9,42,30.34,10.0,WSW,6.9,-,N/A,,Clear,250,2011-11-18 20:56:00
4:56 PM,41.0,21.9,47,30.35,10.0,WSW,3.5,-,N/A,,Clear,250,2011-11-18 21:56:00
5:56 PM,41.0,24.1,51,30.38,10.0,WSW,3.5,-,N/A,,Clear,250,2011-11-18 22:56:00
6:56 PM,41.0,23.0,49,30.40,10.0,West,3.5,-,N/A,,Clear,260,2011-11-18 23:56:00
7:56 PM,34.0,27.0,75,30.41,10.0,Calm,Calm,-,N/A,,Clear,0,2011-11-19 00:56:00
8:56 PM,35.1,24.1,64,30.41,10.0,NW,5.8,-,N/A,,Clear,310,2011-11-19 01:56:00
9:56 PM,32.0,27.0,82,30.42,10.0,East,4.6,-,N/A,,Clear,90,2011-11-19 02:56:00
10:56 PM,32.0,26.1,79,30.43,10.0,Calm,Calm,-,N/A,,Clear,0,2011-11-19 03:56:00
11:56 PM,37.0,21.9,54,30.42,10.0,West,5.8,-,N/A,,Clear,280,2011-11-19 04:56:00